Weather in Arnsberg

Germany     51°23′44″N   8°03′56″E
temp.,
°C
wind,
m/s
gust,
m/s
humid.,
%
clouds,
%
prec.,
mm/h
press.,
hPa
HPBL,
m
9 may, sun
sun923:00+12s5137949 0.0 1010467
02:00+11s41289100 0.0 1009285
05:00+9sse489599 0.0 1008132
08:00+14sse41275100 0.0 1007308
11:00+21s5956100 0.0 1005571
14:00+25s6124792 0.0 10041332
17:00+25ssw611495 0.0 10031380
20:00+21ssw61359100 0.0 1003798
10 may, mon
mon1023:00+19s615549 0.0 1004899
02:00+19ssw51251100 0.0 1004825
05:00+15sse3668100 0.0 100299
08:00+15ssw61481100 0.2 1005753
11:00+18sw71263100 0.1 10061308
14:00+19sw61058100 0.2 10081582
17:00+17wsw2570100 0.1 10091206
20:00+14se1190100 0.7 100912
11 may, tue
tue1123:00+12sse2498100 4.1 1009145
02:00+12sw1498100 14.6 1010145
05:00+11nw3699100 4.9 1009410
08:00+11nne2699100 10.1 1010464
11:00+10nne3798100 2.1 1009461
14:00+11nne3593100 2.3 1009472
17:00+12n2389100 0.1 1009416
20:00+11n1292100 0.3 1008166
12 may, wed
wed1223:00+10nne1195100 0.1 100938
02:00+9wsw0097100 0.1 100913
05:00+10w2397100 0.0 1008119
08:00+10wnw2496100 0.1 1009348
11:00+12wnw4690100 0.8 1008825
14:00+11w589699 2.0 1009558
17:00+10w3894100 0.4 1010605
20:00+9w2693100 0.6 1011374
13 may, thu
thu1323:00+8wsw2393100 0.1 101282
02:00+8wsw2394100 0.1 101285
05:00+6wsw229781 0.0 101237
08:00+8w1391100 0.0 1011243
11:00+11nw3572100 0.0 1011802
14:00+12nnw3462100 0.0 1011943
17:00+12nnw2363100 0.0 1010578
20:00+12wnw117699 0.0 101013